Epoch = 2014 July 2.0 TT T = 2014 June 29.00506 TT Peri. = 48.15722 e = 0.3462740 Node = 59.52702 2000.0 q = 3.1318120 AU Incl. = 18.86840 a = 4.7907102 AU n = 0.09399489 P = 10.49 years
m1 = 12.5 + 5 log d + 10.0 log r